Regional Weather Roundup
Issued by NWS

Home | Current Version | Previous Version | Graphics & Text | Print | Product List | Glossary On
Versions: 1 2 3 4 5 6 7 8 9 10 11 12 13 14 15 16 17 18 19 20 21 22 23 24 25 26 27 28 29 30 31 32 33 34 35 36 37 38 39 40 41 42 43 44 45 46 47 48 49 50
000
ASUS43 KLMK 201702
RWRKY
KENTUCKY REGIONAL WEATHER ROUNDUP
NATIONAL WEATHER SERVICE LOUISVILLE KY
1200 PM EST SAT DEC 20 2014

NOTE "FAIR" INDICATES FEW OR NO CLOUDS BELOW 12,000 FEET
WITH NO SIGNIFICANT WEATHER AND/OR OBSTRUCTIONS TO VISIBILITY.

KYZ001>023-026-027-061>063-070>075-201800-
WESTERN AND SOUTH CENTRAL KENTUCKY

CITY           SKY/WX    TMP DP  RH WIND       PRES   REMARKS
PADUCAH        CLOUDY    38  28  67 CALM      30.29F
HENDERSON      CLOUDY    34  25  69 NE6       30.31F WCI  29
OWENSBORO      CLOUDY    34  26  72 NE7       30.32S WCI  28
HOPKINSVILLE   CLOUDY    36  28  71 VRB2      30.29F
BOWLING GREEN  CLOUDY    37  26  64 CALM      30.30F
GLASGOW        NOT AVBL
$$

KYZ024-025-028>034-038-045-046-053-201800-
NORTH CENTRAL KENTUCKY

CITY           SKY/WX    TMP DP  RH WIND       PRES   REMARKS
LOUISVILLE/SDF CLOUDY    35  25  66 N3        30.30F
LOUISVILLE/LOU CLOUDY    34  26  72 CALM      30.30F
FORT KNOX      CLOUDY    33  25  71 VRB2      30.27F
$$

KYZ035>037-039>044-047>052-055>060-089>105-201800-
NORTHEAST KENTUCKY

CITY           SKY/WX    TMP DP  RH WIND       PRES   REMARKS
LEXINGTON      CLOUDY    33  25  72 E3        30.26F
COVINGTON      CLOUDY    31  24  75 CALM      30.28F
FRANKFORT      CLOUDY    33  25  72 VRB3      30.27F
$$

KYZ054-064>069-076>088-106>120-201800-
SOUTHEAST KENTUCKY

CITY           SKY/WX    TMP DP  RH WIND       PRES   REMARKS
JACKSON        CLOUDY    33  24  69 CALM      30.23F
LONDON         CLOUDY    36  26  67 W5        30.24S WCI  32
SOMERSET       NOT AVBL
MIDDLESBORO    CLOUDY    39  32  76 CALM      30.23F
MONTICELLO     CLOUDY    38  28  67 CALM      30.29F
$$




USA.gov is the U.S. government's official web portal to all federal, state and local government web resources and services.